Voltar ao catálogo

BUCCANEER MM

AtivoMilitarSSO
NORAD 63245·PAYLOAD·🇦🇺 Australia

Lançado Mar 15, 2025 de Vandenberg Space Force Base

Loading…

Próximas Passagens (próximas 24 horas)

TLE

AtualizadoSource: Space-Track

Época: Sep 14, 2026, 22:16 UTC

1 63245U 25052AM  26257.92847212  .00002109  00000-0  19765-3 0  9994
2 63245  97.6721 147.0630 0002368 284.2636  75.8321 14.95073555 82005

Acompanhe BUCCANEER MM em tempo real com AllMySat

Download on the App Store